FENGYUN 1C DEB

Satellite information

Favourite Embed

Satellite Type and Status

DEBRISIN ORBIT

Key statistics

Satellite FENGYUN 1C DEB at a glance.

Uptime

9613

Days in orbit

Revolutions

≈ 13.9

Per day

Orbit

SSO

Sun Synchronous Orbit

Inclination

99.5

Latest

Satellite identification and parameters

Extended collection of information and parameters for FENGYUN 1C DEB.

Object identification

Identified? True

Debris? True

Object name: FENGYUN 1C DEB

International designator: 1999-025TD

Object number (NORAD): 30148

Object ID (CCSDS): 30148

Country: PEOPLES REPUBLIC OF CHINA (PRC)

Current information (Y/N): Y

RCS size: SMALL

Orbital parameters

Period: 103.729 minutes

Inclination: 99.5378 deg

SMA: 7312.961 km

Apoapsis: 1034.154 km

Periapsis: 835.498 km

RAAN: 32.6499 deg

Eccentricy: 0.01358247

Argument of periapsis: 106.2356 deg

Mean anomaly: 274.2841 deg

Mean motion: 13.8823459 rev/day

Mean motion (dot): 0.00001554 rev/day2

B* drag term: 0.0012427015 1/REarth

Two-line elements (TLE)

Creation date: Sept. 3, 2025, 2:21 a.m.

Reference frame: TEME

Reference center: EARTH

Epoch: Sept. 2, 2025, 3:45 p.m. UTC

TLE line 0: 0 FENGYUN 1C DEB

TLE line 1: 1 30148U 99025TD 25245.65681188 .00001554 00000-0 12427-2 0 9995

TLE line 2: 2 30148 99.5378 32.6499 0135825 106.2356 274.2841 13.88234590941149

Live tracking on map

Real-time ground track for satellite FENGYUN 1C DEB.

In-orbit conjunctions

A list of the most updated potential collisions computed for object FENGYUN 1C DEB.

Target Orbit TCA Probability of collision Miss distance Type
CZ-6A DEB LEO 2025-01-26 22:18:31 0.0001220761 395.0 (m) DEBRIS
COSMOS 2251 DEB LEO 2024-11-08 19:54:32 0.00119546 255.0 (m) DEBRIS
INFORMATOR 1 LEO 2024-11-03 19:42:27 0.0001857417 376.0 (m) PAYLOAD

Associated space launch

Chinese polar orbiting meteorological satellite

FENGYUN 1C DEB was lifted into orbit during the mission ‘Long March 4B | Feng Yun 1C’, on board a Long March 4B space rocket.

The launch took place on May 10, 1999, 1:33 a.m. from Launch Complex 7.

For more information about the launch, click the button.

Launch to space Long March 4B | Feng Yun 1C
Long March 4B | Feng Yun 1C

Agency: N/A

Status: Launch Successful

Launch date: May 10, 1999, 1:33 a.m. UTC

Rocket: Long March 4B

Launch pad: Launch Complex 7

Location: Taiyuan Satellite Launch Center, People's Republic of China

...

Latest news about this satellite

There are no fresh news available about this satellite. Check back as we update our databases every day.


Newsletter sign-up

Weekly statistics, charts and insights to help you stay on top of the space industry.